Regional Weather Roundup
Issued by NWS

Home | Current Version | Previous Version | Text Only | Print | Product List | Glossary Off
Versions: 1 2 3 4 5 6 7 8 9 10 11 12 13 14 15 16 17 18 19 20 21 22 23 24 25 26 27 28 29 30 31 32 33 34 35 36 37 38 39 40 41 42 43 44 45 46 47 48 49 50

000
ASUS45 KBOU 270107
RWRCO

WEATHER ROUNDUP FOR COLORADO
NATIONAL WEATHER SERVICE DENVER/BOULDER CO
700 PM MDT FRI MAY 26 2017

NOTE: "FAIR" INDICATES FEW OR NO CLOUDS BELOW 12000 FEET WITH NO
SIGNIFICANT WEATHER AND/OR OBSTRUCTIONS TO VISIBILITY.

COZ001>005-013-030-031-270200-
...NORTHWEST COLORADO...

CITY           SKY/WX    TMP DP  RH WIND       PRES   REMARKS
CRAIG          FAIR      54  38  54 N16G30    29.93R
HAYDEN         FAIR      54  36  50 N14       29.91R
MEEKER         FAIR      57  38  48 NE28G39   29.88R
RABBIT EARS PA NOT AVBL
STEAMBOAT SPGS NOT AVBL
WALDEN         NOT AVBL
$$

COZ006>008-011-270200-
...WEST CENTRAL VALLEYS...

CITY           SKY/WX    TMP DP  RH WIND       PRES   REMARKS
GRAND JUNCTION FAIR      80  12   7 W18       29.74R
MONTROSE       FAIR      75  11   8 SW22      29.85S
EAGLE          FAIR      69  12  11 SW16      29.87R
RIFLE          FAIR      76   8   7 S14       29.78S
DELTA          FAIR      82   9   6 SW23G29   29.80S
NUCLA          FAIR      75   9   7 SW22G33   29.90R
$$

COZ017>023-064>068-270200-
...SOUTHWEST COLORADO...

CITY           SKY/WX    TMP DP  RH WIND       PRES   REMARKS
DURANGO        FAIR      71   9   9 SW14G22   29.96S
CORTEZ         FAIR      75   7   7 SW18G30   29.90S
PAGOSA SPRINGS FAIR      68   4   8 W13       30.04R
TELLURIDE      FAIR      60   8  12 SW13G24   30.10R
WOLF CREEK PAS NOT AVBL
$$

COZ009-010-012-014-032>034-037-058>063-270200-
...CENTRAL COLORADO...

CITY           SKY/WX    TMP DP  RH WIND       PRES   REMARKS
ASPEN          FAIR      64  11  12 SW13      29.96R
BUENA VISTA    FAIR      62  16  16 CALM      29.95F
COPPER MTN     NOT AVBL
BERTHOUD PASS  NOT AVBL
COTTONWOOD PAS NOT AVBL
GUNNISON       FAIR      66  13  12 W14G28    29.96R
KREMMLING      NOT AVBL
LEADVILLE      FAIR      54  15  21 S8        30.06R
SALIDA         FAIR      70  15  12 NW12G20   30.01S
SUNLIGHT       NOT AVBL
WILKERSON PASS NOT AVBL
$$

COZ069>075-270200-
...SAN LUIS VALLEY/SANGRE DE CRISTO MOUNTAINS...

CITY           SKY/WX    TMP DP  RH WIND       PRES   REMARKS
ALAMOSA        FAIR      68  10  10 SW22G31   29.98S
DEL NORTE      NOT AVBL
LA VETA PASS   NOT AVBL
SAGUACHE       NOT AVBL
$$

COZ035-036-038>040-270200-
...NORTHERN COLORADO FRONT RANGE...

CITY           SKY/WX    TMP DP  RH WIND       PRES   REMARKS
DENVER INTL AP FAIR      67  52  58 NW9       29.80S
DMNS CITY PARK   N/A     67  50  53 N10G20    29.79R
AURORA         NOT AVBL
FRONT RANGE AP PTSUNNY   73  41  31 S17       29.81F
ERIE MUNI ARPT NOT AVBL
BOULDER MUN AP NOT AVBL
CENTENNIAL     FAIR      67  42  40 S20       29.79F
BROOMFIELD     MOSUNNY   64  52  63 N14       29.82S
FORT COLLINS   FAIR      66  51  58 N10       29.81S
LONGMONT       NOT AVBL
$$

COZ041-046-047-076>085-087-088-270200-
...PIKES PEAK/PALMER DIVIDE AND SOUTHERN FOOTHILLS...

CITY           SKY/WX    TMP DP  RH WIND       PRES   REMARKS
COLO. SPRINGS  PTSUNNY   71  42  35 S8        29.83F THUNDER
A. F. ACADEMY  CLOUDY    59  50  72 N14       29.87S
SCHRIEVER AFB  NOT AVBL
CHEYENNE MTN   NOT AVBL
ELLICOTT       FAIR     N/A N/A N/A S23G31    29.80R THUNDER
FALCON         CLOUDY    61  41  47 NE17G23   29.89F
FORT CARSON    NOT AVBL
LIMON          TSTM      53  45  74 W28G41    29.92R
MONUMENT HILL  NOT AVBL
CANON CITY     NOT AVBL
WALSENBURG     FAIR      75  19  12 SW17G30   29.85S
TRINIDAD       FAIR      78  24  13 W7        29.84S
$$

COZ042>045-048>051-090-091-270200-
...NORTHEAST COLORADO...

CITY           SKY/WX    TMP DP  RH WIND       PRES   REMARKS
GREELEY ARPT   FAIR      66  48  52 SE10      29.78F
AKRON          LGT RAIN  57  51  80 SE12      29.82S
BURLINGTON     FAIR      70  50  49 SE20G28   29.80F
WRAY           TSTM      57  54  88 SE31G44   29.78F
YUMA           NOT AVBL
STERLING       NOT AVBL
HOLYOKE        NOT AVBL
FORT MORGAN    FAIR      61  46  58 E21G29    29.80S
$$

COZ086-089-092>099-270200-
...SOUTHEAST COLORADO...

CITY           SKY/WX    TMP DP  RH WIND       PRES   REMARKS
PUEBLO         FAIR      81  21  11 SW20G31   29.70F
LA JUNTA       FAIR      80  43  26 SE17G32   29.73F
LAMAR          FAIR      78  47  33 SE17G24   29.75F
SPRINGFIELD      N/A     75  45  34 SE18      29.82F
$$



USA.gov is the U.S. government's official web portal to all federal, state and local government web resources and services.